Regional Weather Roundup
Issued by NWS Little Rock, AR

Home | Current Version | Previous Version | Graphics & Text | Print | Product List | Glossary On
Versions: 1 2 3 4 5 6 7 8 9 10 11 12 13 14 15 16 17 18 19 20 21 22 23 24 25 26 27 28 29 30 31 32
000
ASUS44 KLZK 161705
RWRLZK

WEATHER ROUNDUP FOR ARKANSAS
NATIONAL WEATHER SERVICE LITTLE ROCK AR
1200 PM CDT WED AUG 16 2017

NOTE: "FAIR" INDICATES FEW OR NO CLOUDS BELOW 12,000 FEET WITH NO
SIGNIFICANT WEATHER AND/OR OBSTRUCTIONS TO VISIBILITY.

ARZ001-003-010-029-161800-
NORTHWEST ARKANSAS

CITY           SKY/WX    TMP DP  RH WIND       PRES   REMARKS
FAYETTEVILLE   CLOUDY    82  74  76 S9        29.96F HX  88
FORT SMITH     CLOUDY    86  74  67 S13       29.94S HX  94
HARRISON       CLOUDY    85  75  72 S8        29.97F HX  93
BENTONVILLE    CLOUDY    79  72  78 S10G17    29.95F
ROGERS         CLOUDY    77  73  87 S14       29.96F
SILOAM SPGS    CLOUDY    81  72  74 S17       29.94S
HIGHFILL       CLOUDY    82  76  81 S14       29.95  HX  89
SPRINGDALE     LGT RAIN  79  73  83 S12       29.99R
$$

ARZ004-005-016-161800-
NORTH CENTRAL ARKANSAS

CITY           SKY/WX    TMP DP  RH WIND       PRES   REMARKS
BATESVILLE     PTSUNNY   84  75  74 S8        29.99F HX  92
FLIPPIN        SUNNY     90  70  51 SW12      29.93F HX  95
MTN HOME       MOSUNNY   88  76  67 SW7       29.96S HX  99
$$

ARZ040-041-161800-
WEST CENTRAL ARKANSAS

CITY           SKY/WX    TMP DP  RH WIND       PRES   REMARKS
MENA           CLOUDY    84  81  89 CALM      30.00F HX  98
MOUNT IDA      CLOUDY    86  71  60 SW8       29.98S HX  91
$$

ARZ009-017-025-026-028-161800-
NORTHEAST ARKANSAS

CITY           SKY/WX    TMP DP  RH WIND       PRES   REMARKS
JONESBORO      CLOUDY    81  79  94 SW10      30.00F HX  90
NEWPORT        CLOUDY    81  76  84 S12       30.00S HX  87
WALNUT RIDGE   CLOUDY    81  73  78 S15       29.99S HX  85
BLYTHEVILLE    CLOUDY    82  77  84 SW10      30.02S HX  90
NW BLYTHEVILLE PTSUNNY   82  77  83 SW12      30.01F HX  91
$$

ARZ022-023-033-042-044-161800-
CENTRAL ARKANSAS

CITY           SKY/WX    TMP DP  RH WIND       PRES   REMARKS
LITTLE ROCK    PTSUNNY   86  76  71 SW10      29.99F HX  96
JACKSONVILLE   MOSUNNY   86  77  73 S13       29.99S HX  97
CONWAY           N/A     88  77  70 S9G17     29.97R HX 100
SEARCY           N/A    N/A N/A N/A MISG        N/A
HOT SPRINGS    MOSUNNY   88  75  65 SW9       30.00F HX  97
RUSSELLVILLE   CLOUDY    86  76  71 VRB7      29.96  HX  96
CLINTON        PTSUNNY   88  77  70 SW9       29.98S HX 100
$$

ARZ036-161800-
EAST ARKANSAS

CITY           SKY/WX    TMP DP  RH WIND       PRES   REMARKS
WEST MEMPHIS   CLOUDY    80  78  94 S9        30.02S HX  88
$$

ARZ050-053-066-070-073-161800-
SOUTHWEST ARKANSAS

CITY           SKY/WX    TMP DP  RH WIND       PRES   REMARKS
ARKADELPHIA    FAIR      88  76  67 SW13      30.00F HX  99
CAMDEN         PTSUNNY   91  73  55 S9        29.99F HX 100
TEXARKANA      MOSUNNY   87  75  67 SW12      30.00F HX  96
DE QUEEN       PTSUNNY   86  77  74 SW12      29.97S HX  97
$$

ARZ056-057-069-161800-
SOUTHEAST ARKANSAS

CITY           SKY/WX    TMP DP  RH WIND       PRES   REMARKS
PINE BLUFF     MOSUNNY   87  75  67 W9        30.01S HX  96
MONTICELLO     MOSUNNY   87  76  69 SW10      30.02F HX  97

$$






USA.gov is the U.S. government's official web portal to all federal, state and local government web resources and services.